+ View the NASA Portal
+ Center for Near-Earth Object Studies
JPL Small-Body Database Browser
Search:
[
help
]
19043 (6214 P-L)
Classification:
Main-belt Asteroid
SPK-ID:
2019043
[
Ephemeris
|
Orbit Diagram
|
Orbital Elements
|
Mission Design
|
Physical Parameters
|
Discovery Circumstances
]
[ show orbit diagram ]
Orbital Elements at Epoch 2459200.5 (2020-Dec-17.0) TDB
Reference:
JPL 27
(heliocentric ecliptic J2000)
Element
Value
Uncertainty (1-sigma)
Units
e
.1158118086523519
2.9056e-08
a
2.357668208256281
8.1187e-09
au
q
2.084622388855971
6.8067e-08
au
i
4.336569202109701
4.0156e-06
deg
node
221.9564289807077
4.9576e-05
deg
peri
225.8842055153048
5.3623e-05
deg
M
154.1745059965994
1.9791e-05
deg
t
p
2458634.218305894213
(2019-May-30.71830589)
7.2294e-05
TDB
period
1322.277042889178
3.62
6.8299e-06
1.87e-08
d
yr
n
.2722576194875163
1.4063e-09
deg/d
Q
2.63071402765659
9.0589e-09
au
Orbit Determination Parameters
# obs. used (total)
1346
data-arc span
21794 days (59.67 yr)
first obs. used
1960-09-24
last obs. used
2020-05-26
planetary ephem.
DE441
SB-pert. ephem.
SB441-N16
condition code
0
norm. resid. RMS
.4705
source
ORB
producer
Otto Matic
solution date
2021-Apr-13 02:44:52
Additional Information
Earth MOID
= 1.10325 au
Jupiter MOID
= 2.55312 au
T_jup
= 3.540
[ show covariance matrix ]
[
Ephemeris
|
Orbit Diagram
|
Orbital Elements
|
Mission Design
|
Physical Parameters
|
Discovery Circumstances
]
Physical Parameter Table
Parameter
Symbol
Value
Units
Sigma
Reference
Notes
absolute magnitude
H
15.21
n/a
E2021B10
19043 (6214 P-L)
Discovered 1960-Sep-24 by van Houten, C. J., van Houten-Groeneveld, I., Gehrels, T. at Palomar
Reference:
20001111/Numbers.arc
Last Updated:
2004-04-19
Alternate Designations
6214 P-L
= 1982 VW7
[
Ephemeris
|
Orbit Diagram
|
Orbital Elements
|
Mission Design
|
Physical Parameters
|
Discovery Circumstances
]
2021-Apr-19 09:09 UT
(server date/time)
Site Manager:
Ryan S. Park
Webmaster
:
Alan B. Chamberlin